W5SDC Weather Reports


Display with metric or nautical units.
time (UTC)temp
F
wind
direction
speed
MPH
gust
MPH
rain 1hr
in
rain 24hr
in
rain mn
in
humidity
%
barometer
mb
20260901225028 99 47 5.0 7.0 0.00 0.00 0.00 44 1014.0
20260901224517 99 48 6.0 8.0 0.00 0.00 0.00 43 1014.0
20260901224023 100 81 5.0 9.0 0.00 0.00 0.00 43 1014.0
20260901223550 100 140 4.0 7.0 0.00 0.00 0.00 43 1014.1
20260901223018 99 161 5.0 7.0 0.00 0.00 0.00 43 1014.1
20260901222524 99 159 4.0 6.0 0.00 0.00 0.00 42 1014.2
20260901222031 99 158 4.0 6.0 0.00 0.00 0.00 43 1014.2
20260901221519 98 125 4.0 6.0 0.00 0.00 0.00 44 1014.2
20260901221046 99 74 6.0 8.0 0.00 0.00 0.00 43 1014.2
20260901220552 99 45 5.0 7.0 0.00 0.00 0.00 43 1014.2
20260901220020 99 94 4.0 7.0 0.00 0.00 0.00 43 1014.1
20260901215527 99 47 5.0 8.0 0.00 0.00 0.00 43 1014.1
20260901215053 100 28 6.0 8.0 0.00 0.00 0.00 42 1014.2
20260901214521 100 91 4.0 6.0 0.00 0.00 0.00 42 1014.3
20260901214027 99 128 3.0 7.0 0.00 0.00 0.00 42 1014.3
20260901213536 100 117 5.0 7.0 0.00 0.00 0.00 42 1014.3
20260901213022 99 184 3.0 4.0 0.00 0.00 0.00 43 1014.3
20260901212529 99 60 4.0 6.0 0.00 0.00 0.00 43 1014.5
20260901212017 100 30 4.0 8.0 0.00 0.00 0.00 43 1014.5
20260901211523 99 78 6.0 8.0 0.00 0.00 0.00 43 1014.6
20260901211030 99 145 6.0 9.0 0.00 0.00 0.00 43 1014.7
20260901210518 99 161 4.0 7.0 0.00 0.00 0.00 44 1014.8
20260901210045 98 179 3.0 5.0 0.00 0.00 0.00 45 1014.9
20260901205531 96 125 3.0 5.0 0.00 0.00 0.00 46 1014.9
20260901205019 96 115 5.0 8.0 0.00 0.00 0.00 46 1015.0
20260901204526 97 163 5.0 8.0 0.00 0.00 0.00 45 1015.0
20260901204032 99 113 5.0 8.0 0.00 0.00 0.00 44 1015.1
20260901203601 98 11 6.0 9.0 0.00 0.00 0.00 45 1015.3
20260901203027 98 85 5.0 7.0 0.00 0.00 0.00 46 1015.3
20260901202515 96 22 4.0 6.0 0.00 0.00 0.00 47 1015.4
20260901202022 97 43 5.0 7.0 0.00 0.00 0.00 46 1015.5
20260901201528 98 40 4.0 7.0 0.00 0.00 0.00 45 1015.5
20260901201016 98 340 6.0 9.0 0.00 0.00 0.00 44 1015.5
20260901200523 97 154 5.0 7.0 0.00 0.00 0.00 46 1015.5
20260901200029 98 148 4.0 7.0 0.00 0.00 0.00 45 1015.8
20260901195517 98 248 4.0 6.0 0.00 0.00 0.00 46 1015.8
20260901195024 98 49 5.0 6.0 0.00 0.00 0.00 45 1015.8
20260901194611 98 145 5.0 7.0 0.00 0.00 0.00 46 1015.8
20260901194039 97 65 6.0 10.0 0.00 0.00 0.00 48 1015.8
20260901193525 95 109 3.0 5.0 0.00 0.00 0.00 47 1016.0
20260901193032 97 48 5.0 7.0 0.00 0.00 0.00 46 1016.0
20260901192520 95 95 4.0 7.0 0.00 0.00 0.00 48 1016.0
20260901192046 96 103 4.0 6.0 0.00 0.00 0.00 47 1016.0
20260901191533 99 78 5.0 7.0 0.00 0.00 0.00 45 1016.2
20260901191020 99 116 5.0 8.0 0.00 0.00 0.00 45 1016.3
20260901190527 98 201 4.0 6.0 0.00 0.00 0.00 46 1016.3
20260901190015 97 133 5.0 9.0 0.00 0.00 0.00 47 1016.5
20260901185521 98 173 7.0 9.0 0.00 0.00 0.00 46 1016.5
20260901185048 99 178 3.0 7.0 0.00 0.00 0.00 46 1016.6
20260901184556 98 114 4.0 7.0 0.00 0.00 0.00 47 1016.7
20260901184023 97 181 4.0 6.0 0.00 0.00 0.00 48 1016.7
20260901183529 96 352 4.0 6.0 0.00 0.00 0.00 49 1016.9
20260901183017 97 90 4.0 7.0 0.00 0.00 0.00 47 1016.9
20260901182524 96 183 6.0 8.0 0.00 0.00 0.00 48 1017.0
20260901182051 97 187 7.0 10.0 0.00 0.00 0.00 47 1017.1
20260901181518 97 345 5.0 7.0 0.00 0.00 0.00 48 1017.2
20260901181025 97 79 4.0 8.0 0.00 0.00 0.00 49 1017.3
20260901180531 96 160 6.0 9.0 0.00 0.00 0.00 49 1017.3
20260901180039 96 151 6.0 8.0 0.00 0.00 0.00 49 1017.4
20260901175526 97 149 6.0 8.0 0.00 0.00 0.00 49 1017.4
20260901175033 97 168 4.0 6.0 0.00 0.00 0.00 49 1017.6
20260901174521 97 158 4.0 7.0 0.00 0.00 0.00 50 1017.7
20260901174027 95 139 4.0 8.0 0.00 0.00 0.00 53 1017.8
20260901173515 95 129 5.0 7.0 0.00 0.00 0.00 52 1017.9
20260901173022 95 77 4.0 7.0 0.00 0.00 0.00 52 1017.9
20260901172528 95 20 5.0 8.0 0.00 0.00 0.00 52 1017.9
20260901172016 95 140 3.0 6.0 0.00 0.00 0.00 52 1017.9
20260901171523 95 156 5.0 6.0 0.00 0.00 0.00 53 1018.0
20260901171109 94 193 6.0 9.0 0.00 0.00 0.00 54 1018.2
20260901170518 94 140 4.0 8.0 0.00 0.00 0.00 54 1018.2
20260901170024 94 163 4.0 6.0 0.00 0.00 0.00 54 1018.1
20260901165530 95 156 5.0 7.0 0.00 0.00 0.00 54 1018.1
20260901165019 93 190 3.0 5.0 0.00 0.00 0.00 55 1018.2
20260901164525 93 167 5.0 7.0 0.00 0.00 0.00 56 1018.2
20260901164031 93 152 6.0 8.0 0.00 0.00 0.00 55 1018.3
20260901163620 94 174 5.0 6.0 0.00 0.00 0.00 54 1018.4
20260901163026 92 186 5.0 7.0 0.00 0.00 0.00 56 1018.4
20260901162533 92 158 5.0 7.0 0.00 0.00 0.00 56 1018.4
20260901162021 94 179 5.0 6.0 0.00 0.00 0.00 54 1018.4
20260901161527 93 161 4.0 5.0 0.00 0.00 0.00 56 1018.4
20260901161015 93 186 3.0 5.0 0.00 0.00 0.00 57 1018.4
20260901160522 93 294 2.0 4.0 0.00 0.00 0.00 57 1018.4
20260901160109 91 334 3.0 4.0 0.00 0.00 0.00 59 1018.5
20260901155517 91 187 3.0 5.0 0.00 0.00 0.00 58 1018.5
20260901155023 91 166 3.0 5.0 0.00 0.00 0.00 59 1018.4
20260901154550 91 161 2.0 4.0 0.00 0.00 0.00 59 1018.4
20260901154017 94 163 3.0 4.0 0.00 0.00 0.00 56 1018.4
20260901153524 95 195 3.0 4.0 0.00 0.00 0.00 56 1018.4
20260901153050 95 275 2.0 4.0 0.00 0.00 0.00 56 1018.4
20260901152518 94 136 2.0 4.0 0.00 0.00 0.00 57 1018.5
20260901152025 91 354 2.0 3.0 0.00 0.00 0.00 59 1018.5
20260901151532 92 221 3.0 5.0 0.00 0.00 0.00 58 1018.5
20260901151020 93 215 2.0 4.0 0.00 0.00 0.00 61 1018.5
20260901150526 92 271 3.0 5.0 0.00 0.00 0.00 62 1018.5
20260901150033 91 150 2.0 3.0 0.00 0.00 0.00 64 1018.5
20260901145521 91 219 2.0 4.0 0.00 0.00 0.00 64 1018.5
20260901145028 90 190 2.0 4.0 0.00 0.00 0.00 67 1018.5
20260901144515 89 235 2.0 6.0 0.00 0.00 0.00 68 1018.5
20260901144022 89 235 3.0 5.0 0.00 0.00 0.00 69 1018.6
20260901143528 89 223 3.0 5.0 0.00 0.00 0.00 70 1018.6
20260901143016 88 201 2.0 5.0 0.00 0.00 0.00 71 1018.6
20260901142523 87 207 3.0 7.0 0.00 0.00 0.00 72 1018.7
20260901142030 87 234 2.0 4.0 0.00 0.00 0.00 72 1018.7
20260901141518 86 216 3.0 5.0 0.00 0.00 0.00 74 1018.8
20260901141024 85 217 3.0 5.0 0.00 0.00 0.00 75 1018.9
20260901140531 85 198 4.0 6.0 0.00 0.00 0.00 75 1018.9
20260901140019 85 204 2.0 5.0 0.00 0.00 0.00 75 1018.7
20260901135525 85 221 2.0 4.0 0.00 0.00 0.00 77 1018.7
20260901135032 84 235 3.0 5.0 0.00 0.00 0.00 77 1018.6
20260901134520 84 227 2.0 4.0 0.00 0.00 0.00 78 1018.5
20260901134026 83 205 1.0 3.0 0.00 0.00 0.00 79 1018.5
20260901133553 82 199 3.0 5.0 0.00 0.00 0.00 81 1018.4
20260901133021 81 207 3.0 4.0 0.00 0.00 0.00 82 1018.4
20260901132527 81 212 3.0 4.0 0.00 0.00 0.00 82 1018.4
20260901132016 80 188 2.0 3.0 0.00 0.00 0.00 84 1018.4
20260901131522 80 213 1.0 3.0 0.00 0.00 0.00 86 1018.2
20260901131029 78 214 1.0 4.0 0.00 0.00 0.00 87 1018.1
20260901130517 78 208 3.0 4.0 0.00 0.00 0.00 89 1018.1
20260901130023 77 203 0.0 1.0 0.00 0.00 0.00 91 1018.0
20260901125530 76 0.0 1.0 0.00 0.00 0.00 92 1018.0
20260901125018 75 0.0 0.0 0.00 0.00 0.00 94 1017.9
20260901124524 74 217 2.0 3.0 0.00 0.00 0.00 95 1017.9
20260901124031 74 210 2.0 4.0 0.00 0.00 0.00 95 1017.9
20260901123519 73 231 1.0 4.0 0.00 0.00 0.00 95 1017.7
20260901123025 73 203 0.0 1.0 0.00 0.00 0.00 95 1017.7
20260901122532 73 225 0.0 2.0 0.00 0.00 0.00 95 1017.7
20260901122020 73 234 0.0 2.0 0.00 0.00 0.00 95 1017.7
20260901121526 73 0.0 0.0 0.00 0.00 0.00 95 1017.7
20260901121033 74 203 0.0 2.0 0.00 0.00 0.00 95 1017.7
20260901120521 74 203 0.0 2.0 0.00 0.00 0.00 95 1017.7
20260901120028 74 174 1.0 2.0 0.00 0.00 0.00 94 1017.7
20260901115516 74 209 2.0 3.0 0.00 0.00 0.00 94 1017.7
20260901115042 74 205 2.0 4.0 0.00 0.00 0.00 94 1017.6
20260901114549 74 213 2.0 3.0 0.00 0.00 0.00 94 1017.6
20260901114017 74 202 2.0 3.0 0.00 0.00 0.00 94 1017.6
20260901113523 74 194 1.0 3.0 0.00 0.00 0.00 94 1017.5
20260901113030 74 212 2.0 4.0 0.00 0.00 0.00 93 1017.5
20260901112518 74 203 2.0 3.0 0.00 0.00 0.00 93 1017.6
20260901112044 74 198 2.0 4.0 0.00 0.00 0.00 93 1017.6
20260901111531 74 216 2.0 4.0 0.00 0.00 0.00 93 1017.6
20260901111019 75 212 2.0 4.0 0.00 0.00 0.00 92 1017.5
20260901110526 75 196 2.0 4.0 0.00 0.00 0.00 92 1017.5
20260901110052 75 223 2.0 4.0 0.00 0.00 0.00 92 1017.5
20260901105541 75 180 2.0 4.0 0.00 0.00 0.00 92 1017.5
20260901105027 75 210 3.0 5.0 0.00 0.00 0.00 91 1017.5
20260901104515 75 195 2.0 5.0 0.00 0.00 0.00 91 1017.5
20260901104022 75 203 2.0 4.0 0.00 0.00 0.00 91 1017.5
20260901103528 75 206 2.0 4.0 0.00 0.00 0.00 91 1017.5
20260901103037 75 207 2.0 4.0 0.00 0.00 0.00 90 1017.5
20260901102523 75 210 3.0 5.0 0.00 0.00 0.00 90 1017.4
20260901102029 75 204 3.0 5.0 0.00 0.00 0.00 90 1017.4
20260901101518 75 201 3.0 5.0 0.00 0.00 0.00 89 1017.4
20260901101024 76 211 4.0 6.0 0.00 0.00 0.00 89 1017.3
20260901100551 76 194 4.0 5.0 0.00 0.00 0.00 89 1017.3
20260901100019 76 203 4.0 7.0 0.00 0.00 0.00 89 1017.4
20260901095525 76 193 3.0 5.0 0.00 0.00 0.00 88 1017.4
20260901095032 76 203 3.0 6.0 0.00 0.00 0.00 88 1017.5
20260901094600 76 180 4.0 6.0 0.00 0.00 0.00 88 1017.5
20260901094027 76 173 4.0 6.0 0.00 0.00 0.00 87 1017.5
20260901093553 76 184 4.0 5.0 0.00 0.00 0.00 87 1017.6
20260901093021 76 195 4.0 5.0 0.00 0.00 0.00 87 1017.6
20260901092528 76 202 4.0 6.0 0.00 0.00 0.00 87 1017.6
20260901092016 76 196 4.0 6.0 0.00 0.00 0.00 86 1017.6
20260901091522 76 188 3.0 5.0 0.00 0.00 0.00 86 1017.5
20260901091029 76 194 3.0 4.0 0.00 0.00 0.00 86 1017.5
20260901090517 76 211 3.0 5.0 0.00 0.00 0.00 86 1017.5
20260901090044 77 187 3.0 4.0 0.00 0.00 0.00 85 1017.5
20260901085530 77 211 3.0 5.0 0.00 0.00 0.00 85 1017.5
20260901085019 77 198 4.0 6.0 0.00 0.00 0.00 85 1017.4
20260901084545 77 165 4.0 6.0 0.00 0.00 0.00 84 1017.4
20260901084032 77 213 3.0 5.0 0.00 0.00 0.00 84 1017.4
20260901083520 77 197 3.0 5.0 0.00 0.00 0.00 84 1017.4
20260901083026 77 189 2.0 4.0 0.00 0.00 0.00 84 1017.4
20260901082533 77 194 2.0 5.0 0.00 0.00 0.00 83 1017.4
20260901082021 77 212 2.0 4.0 0.00 0.00 0.00 83 1017.4
20260901081527 77 212 1.0 4.0 0.00 0.00 0.00 83 1017.4
20260901081055 78 198 2.0 4.0 0.00 0.00 0.00 83 1017.4
20260901080522 78 185 3.0 5.0 0.00 0.00 0.00 82 1017.4
20260901080029 78 185 3.0 5.0 0.00 0.00 0.00 82 1017.5
20260901075517 78 167 3.0 4.0 0.00 0.00 0.00 82 1017.5
20260901075023 78 186 3.0 5.0 0.00 0.00 0.00 81 1017.5
20260901074530 78 160 3.0 6.0 0.00 0.00 0.00 81 1017.5
20260901074118 78 187 3.0 5.0 0.00 0.00 0.00 81 1017.5
20260901073524 78 181 3.0 5.0 0.00 0.00 0.00 81 1017.5
20260901073031 79 175 4.0 5.0 0.00 0.00 0.00 80 1017.5
20260901072519 79 202 3.0 6.0 0.00 0.00 0.00 80 1017.5
20260901072026 79 187 4.0 6.0 0.00 0.00 0.00 80 1017.5
20260901071532 79 192 4.0 6.0 0.00 0.00 0.00 79 1017.5
20260901071020 79 194 4.0 6.0 0.00 0.00 0.00 78 1017.5
20260901070527 79 163 4.0 7.0 0.00 0.00 0.00 78 1017.5
20260901070015 80 172 4.0 7.0 0.00 0.00 0.00 78 1017.5
20260901065522 80 177 5.0 7.0 0.00 0.00 0.00 77 1017.5
20260901065028 80 166 5.0 7.0 0.00 0.00 0.00 77 1017.4
20260901064516 80 168 4.0 6.0 0.00 0.00 0.00 77 1017.4
20260901064023 80 179 4.0 6.0 0.00 0.00 0.00 77 1017.4
20260901063530 80 182 5.0 7.0 0.00 0.00 0.00 76 1017.4
20260901063018 80 172 5.0 7.0 0.00 0.00 0.00 76 1017.4
20260901062605 81 167 5.0 7.0 0.00 0.00 0.00 76 1017.1
20260901062031 81 149 5.0 8.0 0.00 0.00 0.00 75 1017.1
20260901061519 81 168 4.0 5.0 0.00 0.00 0.00 75 1017.1
20260901061046 81 214 5.0 9.0 0.00 0.00 0.00 74 1017.1
20260901060532 81 189 4.0 6.0 0.00 0.00 0.00 74 1017.1
20260901060020 81 183 6.0 9.0 0.00 0.00 0.00 73 1017.1
20260901055527 81 162 6.0 7.0 0.00 0.00 0.00 73 1017.1
20260901055020 81 177 5.0 8.0 0.00 0.00 0.00 73 1016.9
20260901054527 82 172 3.0 5.0 0.00 0.00 0.00 73 1016.9
20260901054053 82 208 5.0 8.0 0.00 0.00 0.00 73 1016.9
20260901053521 82 164 4.0 7.0 0.00 0.00 0.00 72 1016.9
20260901053028 82 156 5.0 7.0 0.00 0.00 0.00 72 1016.9
20260901052516 82 164 5.0 6.0 0.00 0.00 0.00 71 1016.9
20260901052023 82 172 6.0 8.0 0.00 0.00 0.00 71 1016.9
20260901051529 82 189 6.0 11.0 0.00 0.00 0.00 70 1016.8
20260901051017 82 178 5.0 10.0 0.00 0.00 0.00 69 1016.8
20260901050524 83 199 4.0 8.0 0.00 0.00 0.00 69 1016.8
20260901050111 83 174 5.0 6.0 0.00 0.00 0.00 68 1016.8
20260901045519 83 166 5.0 7.0 0.00 0.00 0.00 68 1016.8
20260901045045 83 119 4.0 5.0 0.00 0.00 0.00 67 1016.8
20260901044531 83 154 4.0 6.0 0.00 0.00 0.00 67 1016.8
20260901044020 84 164 6.0 8.0 0.00 0.00 0.00 66 1016.8
20260901043526 84 158 6.0 9.0 0.00 0.00 0.00 66 1016.7
20260901043033 84 175 7.0 9.0 0.00 0.00 0.00 65 1016.7
20260901042521 84 149 7.0 11.0 0.00 0.00 0.00 64 1016.7
20260901042028 84 145 7.0 11.0 0.00 0.00 0.00 63 1016.7
20260901041516 84 147 5.0 8.0 0.00 0.00 0.00 62 1016.7
20260901041022 84 190 5.0 8.0 0.00 0.00 0.00 62 1016.7
20260901040549 85 171 6.0 9.0 0.00 0.00 0.00 61 1016.7
20260901040017 85 155 6.0 8.0 0.00 0.00 0.00 61 1016.5
20260901035523 85 152 7.0 9.0 0.00 0.00 0.00 60 1016.5
20260901035030 85 188 7.0 10.0 0.00 0.00 0.00 60 1016.5
20260901034518 85 144 8.0 13.0 0.00 0.00 0.00 60 1016.5
20260901034024 86 149 9.0 16.0 0.00 0.00 0.00 59 1016.4
20260901033531 86 154 7.0 9.0 0.00 0.00 0.00 59 1016.3
20260901033019 86 197 8.0 15.0 0.00 0.00 0.00 58 1016.3
20260901032526 86 196 8.0 10.0 0.00 0.00 0.00 58 1016.2
20260901032053 86 134 7.0 10.0 0.00 0.00 0.00 55 1016.2
20260901031521 87 163 7.0 9.0 0.00 0.00 0.00 53 1016.1
20260901031027 87 129 6.0 8.0 0.00 0.00 0.00 53 1016.0
20260901030515 87 147 4.0 7.0 0.00 0.00 0.00 52 1016.0
20260901030022 87 142 4.0 6.0 0.00 0.00 0.00 51 1015.8
20260901025528 87 148 4.0 6.0 0.00 0.00 0.00 51 1015.8
20260901025016 87 162 3.0 5.0 0.00 0.00 0.00 50 1015.8
20260901024543 87 134 4.0 6.0 0.00 0.00 0.00 50 1015.8
20260901024029 87 128 4.0 5.0 0.00 0.00 0.00 50 1015.7
20260901023518 87 132 3.0 5.0 0.00 0.00 0.00 50 1015.5
20260901023024 87 139 3.0 4.0 0.00 0.00 0.00 50 1015.5
20260901022550 87 124 4.0 6.0 0.00 0.00 0.00 50 1015.5
20260901022019 87 117 4.0 6.0 0.00 0.00 0.00 50 1015.5
20260901021545 88 127 3.0 4.0 0.00 0.00 0.00 50 1015.4
20260901021032 88 137 3.0 4.0 0.00 0.00 0.00 49 1015.3
20260901020520 88 136 3.0 5.0 0.00 0.00 0.00 49 1015.3
20260901020027 88 171 3.0 4.0 0.00 0.00 0.00 49 1015.1
20260901015533 88 139 3.0 4.0 0.00 0.00 0.00 49 1015.1
20260901015021 88 149 3.0 5.0 0.00 0.00 0.00 48 1015.0
20260901014528 89 143 2.0 4.0 0.00 0.00 0.00 48 1015.0
20260901014016 89 147 3.0 4.0 0.00 0.00 0.00 48 1015.0
20260901013523 89 140 2.0 4.0 0.00 0.00 0.00 47 1014.9
20260901013029 89 147 3.0 4.0 0.00 0.00 0.00 47 1014.9
20260901012517 90 133 4.0 5.0 0.00 0.00 0.00 47 1014.8
20260901012024 90 136 3.0 4.0 0.00 0.00 0.00 47 1014.8
20260901011611 90 114 3.0 4.0 0.00 0.00 0.00 46 1014.8
20260901011019 90 121 3.0 4.0 0.00 0.00 0.00 46 1014.7
20260901010545 91 128 4.0 5.0 0.00 0.00 0.00 46 1014.7
20260901010031 91 140 3.0 6.0 0.00 0.00 0.00 45 1014.7
20260901005519 91 158 3.0 4.0 0.00 0.00 0.00 44 1014.7
20260901005026 92 152 5.0 8.0 0.00 0.00 0.00 44 1014.7
20260901004532 92 180 4.0 6.0 0.00 0.00 0.00 43 1014.7
20260901004041 93 158 4.0 6.0 0.00 0.00 0.00 42 1014.7
20260901003527 93 152 4.0 7.0 0.00 0.00 0.00 42 1014.6
20260901003015 93 156 4.0 6.0 0.00 0.00 0.00 42 1014.6
20260901002522 94 158 5.0 7.0 0.00 0.00 0.00 42 1014.5
20260901002028 94 138 6.0 8.0 0.00 0.00 0.00 42 1014.5
20260901001516 95 143 6.0 10.0 0.00 0.00 0.00 42 1014.5
20260901001023 95 153 5.0 8.0 0.00 0.00 0.00 42 1014.5
20260901000529 95 166 5.0 7.0 0.00 0.00 0.00 41 1014.5
20260901000018 95 145 3.0 5.0 0.00 0.00 0.00 41 1014.5
20260831235524 95 159 5.0 6.0 0.00 0.00 0.00 41 1014.5
20260831235111 96 138 5.0 6.0 0.00 0.00 0.00 41 1014.6
20260831234519 96 140 4.0 5.0 0.00 0.00 0.00 41 1014.6
20260831234105 96 135 4.0 6.0 0.00 0.00 0.00 41 1014.6
20260831233532 97 104 5.0 6.0 0.00 0.00 0.00 40 1014.6
20260831233020 97 126 4.0 6.0 0.00 0.00 0.00 40 1014.6
20260831232526 96 119 6.0 9.0 0.00 0.00 0.00 41 1014.5
20260831232033 97 146 7.0 9.0 0.00 0.00 0.00 41 1014.5
20260831231521 97 174 5.0 10.0 0.00 0.00 0.00 41 1014.6
20260831231027 96 78 4.0 7.0 0.00 0.00 0.00 42 1014.7
20260831230536 96 142 6.0 8.0 0.00 0.00 0.00 42 1014.7
20260831225529 97 168 6.0 7.0 0.00 0.00 0.00 41 1014.6